STARLINK-1300 (45374 NORAD) Tracking and Keplerian Element Data

This shows tracking and keplerian element data for the satellite.

Feedback or suggestion? Click here.




ElementValue
Catalog45374
NameSTARLINK-1300
Epoch Orbit1091
Epoch Day145.33334491
Epoch Year2020
RAAN302.8189
Inclination52.9972
Eccentricity0.0001413
Argument of Perigee93.0276
Mean Anonmoly114.0755
Mean Motion15.05571712
Decay Rate0.00033502
L11 45374U 20019Q 20145.33334491 .00033502 00000-0 23081-2 0 9996
L22 45374 52.9972 302.8189 0001413 93.0276 114.0755 15.05571712 10914

Live tracking and technical data element details for STARLINK-1300 (NORAD 45374). STARLINK-1300 can be tracked NOW for your location showing map with azimuth and elevation plus other details from your city location.

Track the satellite on the map from your city or location and see movement details for azimuth, elevation, latitude, longitude, range, height, and movement on the map or in text.







IsCatalogInMostPopularTable: catalog: 45374, numindb: 26
Update: records affected: 1



GetName: 45374 STARLINK-1300

Hit Count: updated at: Tue, 26 May 2020 02:52:26 GMT